sat.trackr.live / text

‹ back to catalog

STARLINK-34032

NORAD 63853 · 2025-093T

PAYLOAD ACTIVE UNKNOWN

§ Identity

Operator
Country
US
Launch date
2025-05-07
Launch site
AFETR
Launch vehicle
Mass (kg)
RCS (m²)

Purposes: comms

External: N2YO · Heavens-Above · Gunter

§ Orbital elements

Epoch: 2026-09-20T09:47:16.575072Z

Period
94.27 min
Inclination
43.0026°
Eccentricity
0.0001155
Mean motion
15.27579902 rev/d
Perigee alt
482.3 km
Apogee alt
483.8 km
Semi-major
6,861.2 km
B*
3.9319e-4
RAAN
58.0584°
Arg perigee
259.5554°
Mean anomaly
100.5167°
Rev number
7,775

§ Raw data

STARLINK-340321 63853U 25093T   26263.40783073  .00010573  00000+0  39319-3 0  99982 63853  43.0026  58.0584 0001155 259.5554 100.5167 15.27579902 77752

JSON: /api/v1/satellites/63853 · /tle

For live sub-satellite position, see the globe view (requires WebGL).

§ Visibility from observer

Set your observer location to see the next 7 days of passes ≥ 10°. The values pass through the URL so the page stays shareable.

No JS? Fill the form by hand. The geolocation button needs JavaScript.